This demonstration page uses our WeatherBlox Daily Observations layout. Learn more.

Left ArrowRight Arrow

Hourly Observations for September 9, 2021

Temp ( °F °C ) Dew Point ( °F °C ) Humidity (%) Winds ( mph kmh ) Pressure ( in mb ) Visibility ( mi km ) Precip ( " mm )
12:53 am 00:53 Clear 80 26.7 58 14.4 47 47 ESE 18 30 29.94 1014 10 16 0.00 0.00
1:53 am 01:53 Clear 77 25 61 16.1 58 58 SE 12 19 29.95 1014 10 16 0.00 0.00
2:53 am 02:53 Clear 74 23.3 61 16.1 64 64 SSE 5 7 29.95 1014 10 16 0.00 0.00
3:53 am 03:53 Clear 71 21.7 60 15.6 68 68 N 6 9 29.95 1014 10 16 0.00 0.00
4:53 am 04:53 Clear 70 21.1 61 16.1 73 73 N 5 7 29.96 1014 10 16 0.00 0.00
5:53 am 05:53 Clear 68 20 61 16.1 78 78 NNE 5 7 29.97 1015 10 16 0.00 0.00
6:53 am 06:53 Clear 67 19.4 60 15.6 79 79 NNE 5 7 29.98 1015 10 16 0.00 0.00
7:53 am 07:53 Sunny 68 20 60 15.6 76 76 E 7 11 29.99 1016 10 16 0.00 0.00
8:53 am 08:53 Sunny 74 23.3 61 16.1 64 64 ESE 7 11 30.00 1016 10 16 0.00 0.00
9:53 am 09:53 Sunny 81 27.2 59 15 47 47 SE 9 15 30.00 1016 10 16 0.00 0.00
10:53 am 10:53 Sunny 84 28.9 58 14.4 41 41 SSE 6 9 30.00 1016 10 16 0.00 0.00
11:53 am 11:53 Sunny 88 31.1 58 14.4 36 36 VRB 6 9 29.99 1016 10 16 0.00 0.00
12:53 pm 12:53 Sunny 91 32.8 56 13.3 31 31 undefined N/A 29.98 1015 10 16 0.00 0.00
1:53 pm 13:53 Sunny 93 33.9 56 13.3 29 29 SSE 13 20 29.96 1014 10 16 0.00 0.00
2:53 pm 14:53 Sunny 95 35 56 13.3 27 27 VRB 6 9 29.93 1014 10 16 0.00 0.00
3:53 pm 15:53 Sunny 95 35 52 11.1 23 23 ESE 9 15 29.91 1013 10 16 0.00 0.00
4:53 pm 16:53 Sunny 98 36.7 46 7.8 17 17 SE 13 20 29.89 1012 10 16 0.00 0.00
5:53 pm 17:53 Sunny 96 35.6 48 8.9 19 19 SSE 9 15 29.88 1012 10 16 0.00 0.00
6:53 pm 18:53 Sunny 95 35 45 7.2 18 18 SSE 13 20 29.89 1012 10 16 0.00 0.00
7:53 pm 19:53 Sunny 92 33.3 46 7.8 21 21 SSE 9 15 29.89 1012 10 16 0.00 0.00
8:53 pm 20:53 Clear 87 30.6 49 9.4 27 27 SSE 9 15 29.91 1013 10 16 0.00 0.00
9:53 pm 21:53 Clear 83 28.3 49 9.4 31 31 SSE 9 15 29.93 1014 10 16 0.00 0.00
10:53 pm 22:53 Clear 83 28.3 49 9.4 31 31 SSE 10 17 29.94 1014 10 16 0.00 0.00
11:53 pm 23:53 Clear 78 25.6 50 10 37 37 SE 8 13 29.95 1014 10 16 0.00 0.00

Powered by AerisWeather